1531040400.8,65505,20.38,74140.8,14.33,4.01,3.97,0,*43
1531040401.99,65506,20.44,74140.5,14.31,4.07,4.19,0,*45
1531040403.21,65507,20.44,74142.0,14.31,3.97,3.97,0,*4B
1531040404.42,65508,20.44,74142.5,14.31,3.53,3.63,0,*47
1531040405.62,65509,20.44,74142.5,14.27,3.49,3.55,0,*4F
1531040406.85,65510,20.44,74142.5,14.25,3.49,3.59,0,*49
1531040408.08,65511,20.44,74140.8,14.25,3.23,3.29,0,*43
1531040409.35,65512,20.44,74144.3,14.21,3.07,3.07,0,*4E
1531040410.59,65513,20.38,74142.0,14.21,3.19,3.29,0,*4C
1531040411.82,65514,20.44,74140.8,14.19,3.75,3.89,0,*40
1531040413.04,65515,20.44,74142.5,14.17,3.45,3.53,0,*4B
1531040414.28,65516,20.44,74140.5,14.17,3.75,4.05,0,*4F
1531040415.48,65517,20.44,74142.0,14.17,3.45,3.63,0,*4A
1531040416.71,65518,20.44,74146.0,14.15,3.41,3.59,0,*4A
1531040417.91,65519,20.44,74142.0,14.13,2.61,2.85,0,*4E
1531040419.14,65520,20.44,74142.0,14.09,3.03,3.19,0,*4E
1531040420.37,65521,20.44,74142.5,14.09,2.81,3.03,0,*4F
1531040421.57,65522,20.44,74142.8,14.05,2.69,2.91,0,*4C
1531040422.78,65523,20.38,74140.8,14.01,2.91,3.15,0,*43
1531040424.04,65524,20.38,74142.0,14.03,3.11,3.37,0,*4F
1531040425.24,65525,20.44,74144.3,14.01,3.29,3.53,0,*45
1531040426.5,65526,20.44,74140.8,13.99,3.45,3.79,0,*42
1531040427.73,65527,20.38,74140.0,13.97,3.71,3.97,0,*4A
1531040428.91,65528,20.44,74144.0,13.97,4.23,4.53,0,*4A
1531040430.12,65529,20.44,74144.0,13.97,4.31,4.53,0,*48
1531040431.3,65530,20.44,74144.0,13.97,4.19,4.23,0,*4D
1531040432.51,65531,20.44,74140.3,13.95,3.93,4.07,0,*4D
1531040433.74,65532,20.44,74140.0,13.95,3.81,3.97,0,*43
1531040435.0,65533,20.44,74140.3,13.95,3.75,4.01,0,*41
1531040436.19,65534,20.44,74142.5,13.93,4.27,4.49,0,*4C
1531040437.37,65535,20.44,74144.3,13.93,3.89,4.15,0,*47
1531040438.54,0,20.44,74142.8,13.93,3.81,4.07,0,*4C
1531040439.72,1,20.44,74142.0,13.93,3.97,4.19,0,*45
1531040440.88,2,20.44,74142.0,13.93,3.93,4.27,0,*4F
1531040442.07,3,20.44,74144.0,13.89,3.67,3.93,0,*46
1531040443.26,4,20.44,74142.3,13.89,3.45,3.85,0,*46
1531040444.41,5,20.44,74144.0,13.87,3.59,3.89,0,*48
1531040445.62,6,20.44,74142.3,13.87,3.37,3.71,0,*44
1531040446.8,7,20.44,74140.3,13.87,3.53,3.89,0,*40
1531040447.98,8,20.44,74142.5,13.87,3.63,4.01,0,*4B
1531040449.16,9,20.38,74142.0,13.87,3.75,4.19,0,*44
1531040450.35,10,20.44,74140.0,13.81,3.81,4.19,0,*71
1531040451.55,11,20.44,74146.3,13.81,3.55,4.01,0,*70
1531040452.77,12,20.38,74142.0,13.81,4.01,4.45,0,*75
1531040453.98,13,20.44,74140.8,13.81,3.45,3.93,0,*7F
1531040455.19,14,20.44,74142.0,13.81,4.01,4.49,0,*7F
1531040456.41,15,20.44,74140.3,13.79,3.45,4.01,0,*72
1531040457.6,16,20.44,74140.8,13.79,4.05,4.49,0,*7E
1531040458.8,17,20.44,74142.8,13.77,4.07,4.53,0,*78
1531040460.01,18,20.44,74142.0,13.77,4.01,4.45,0,*76
1531040461.2,19,20.44,74144.5,13.79,4.31,4.81,0,*72
1531040462.43,20,20.44,74142.8,13.79,4.59,5.05,0,*7B
1531040463.59,21,20.44,74140.8,13.79,4.85,5.33,0,*7E
1531040464.78,22,20.38,74140.8,13.79,4.97,5.45,0,*7F
1531040465.95,23,20.44,74142.8,13.79,4.85,5.33,0,*7C
1531040467.14,24,20.38,74140.5,13.81,4.81,5.33,0,*78
1531040468.33,25,20.44,74142.5,13.85,4.53,4.85,0,*7E
1531040469.56,26,20.44,74140.5,13.85,4.75,5.23,0,*74
1531040470.75,27,20.44,74142.3,13.85,4.89,5.29,0,*7C
1531040471.94,28,20.44,74140.8,13.87,5.11,5.51,0,*7E
1531040473.13,29,20.44,74144.0,13.85,4.85,5.37,0,*71
1531040474.32,30,20.38,74142.3,13.85,5.07,5.49,0,*7B
1531040475.54,31,20.44,74144.3,13.85,4.79,5.11,0,*7F
1531040476.76,32,20.44,74142.8,13.85,4.67,5.07,0,*74
1531040477.97,33,20.44,74144.3,13.85,4.89,5.23,0,*73
1531040479.18,34,20.44,74140.0,13.87,4.93,5.27,0,*79
1531040480.36,35,20.44,74144.3,13.87,5.41,5.73,0,*77
1531040481.55,36,20.44,74142.5,13.89,5.29,5.51,0,*74
1531040482.74,37,20.44,74142.8,13.89,5.37,5.55,0,*7E
1531040483.92,38,20.44,74140.5,13.89,5.45,5.55,0,*74
1531040485.11,39,20.38,74142.0,13.89,5.51,5.63,0,*75
1531040486.28,40,20.44,74140.0,13.93,5.67,5.71,0,*76
1531040487.5,41,20.44,74142.5,13.91,5.63,5.55,0,*77
1531040488.7,42,20.44,74144.0,13.93,5.81,5.67,0,*7B
1531040489.91,43,20.44,74146.0,13.93,5.77,5.55,0,*72
1531040491.09,44,20.44,74142.8,13.93,5.77,5.41,0,*70
1531040492.29,45,20.44,74140.8,13.93,5.93,5.49,0,*73
1531040493.53,46,20.44,74144.5,13.95,5.93,5.27,0,*7E
1531040494.77,47,20.44,74140.8,13.95,5.85,5.27,0,*78
1531040495.99,48,20.44,74142.5,13.95,6.13,5.45,0,*7F
1531040497.19,49,20.44,74146.0,13.95,6.29,5.59,0,*7A
1531040498.41,50,20.44,74142.5,13.97,6.39,5.73,0,*79
1531040499.62,51,20.44,74142.0,13.97,6.39,5.73,0,*78
1531040500.84,52,20.44,74144.5,13.99,6.17,5.41,0,*78
1531040502.03,53,20.44,74142.5,13.99,6.11,5.41,0,*7F
1531040503.22,54,20.44,74142.3,13.99,6.11,5.49,0,*70
1531040504.41,55,20.44,74140.0,13.99,6.11,5.49,0,*71
1531040505.61,56,20.44,74144.8,14.01,6.21,5.55,0,*7A
1531040506.8,57,20.44,74146.0,13.99,6.07,5.49,0,*74
1531040508.01,58,20.38,74138.5,13.99,6.07,5.55,0,*76
1531040509.21,59,20.44,74146.0,14.01,6.29,5.85,0,*70
1531040510.41,60,20.44,74140.5,14.01,6.35,5.99,0,*7A
1531040511.58,61,20.44,74140.0,14.01,6.33,5.95,0,*71
1531040512.77,62,20.44,74140.5,14.01,5.99,5.55,0,*7D
1531040513.99,63,20.44,74142.0,13.99,5.73,5.37,0,*7A
1531040515.21,64,20.44,74142.0,13.99,5.89,5.67,0,*7D
1531040516.39,65,20.44,74140.0,14.01,5.77,5.49,0,*77
1531040517.6,66,20.44,74144.0,13.99,6.07,5.77,0,*7B
1531040518.79,67,20.38,74142.0,13.99,6.11,5.95,0,*71
1531040520.02,68,20.44,74144.3,13.99,6.29,6.17,0,*7C
1531040521.23,69,20.44,74140.3,13.99,5.77,5.63,0,*75
1531040522.44,70,20.44,74144.8,13.99,5.77,5.63,0,*7D
1531040523.66,71,20.44,74142.3,13.99,6.29,6.17,0,*74
1531040524.88,72,20.44,74140.5,14.01,6.47,6.35,0,*79
1531040526.07,73,20.44,74142.3,14.01,6.43,6.21,0,*79
1531040527.24,74,20.44,74142.8,14.01,6.33,6.11,0,*7A
1531040528.44,75,20.44,74142.5,14.01,6.43,6.21,0,*7F
1531040529.61,76,20.44,74142.5,14.01,6.21,5.95,0,*74
1531040530.83,77,20.44,74142.0,14.01,6.35,6.17,0,*79
1531040532.0,78,20.44,74144.0,14.01,6.33,6.07,0,*71
1531040533.2,79,20.44,74140.5,14.01,6.47,6.33,0,*74
1531040534.39,80,20.44,74144.3,14.01,6.47,6.33,0,*72
1531040535.59,81,20.44,74142.5,14.01,6.43,6.33,0,*77
1531040536.8,82,20.44,74140.3,14.01,6.53,6.35,0,*73
1531040538.02,83,20.44,74140.3,14.03,6.47,6.25,0,*74
1531040539.22,84,20.38,74140.0,14.03,5.77,5.71,0,*71
1531040540.39,85,20.44,74142.0,14.01,6.21,6.11,0,*77
1531040541.63,86,20.44,74140.5,13.99,6.57,6.57,0,*71
1531040542.83,87,20.44,74140.8,14.01,6.69,6.69,0,*76
1531040544.01,88,20.44,74140.3,14.01,6.75,6.69,0,*74
1531040545.21,89,20.44,74142.5,14.01,6.69,6.69,0,*78
1531040546.43,90,20.44,74140.0,14.01,6.53,6.43,0,*71
1531040547.62,91,20.44,74140.8,14.01,6.43,6.29,0,*7D
1531040548.79,92,20.44,74140.8,14.01,6.33,6.33,0,*72
1531040550.03,93,20.44,74142.5,13.99,5.55,5.55,0,*75
1531040551.27,94,20.44,74140.0,13.99,5.85,5.85,0,*72
1531040552.48,95,20.44,74146.0,13.99,5.73,5.63,0,*72
1531040553.67,96,20.44,74140.0,13.99,5.29,5.19,0,*73
1531040554.86,97,20.44,74140.5,13.97,5.33,5.27,0,*7A
1531040556.08,98,20.44,74142.0,13.97,5.85,5.85,0,*70
1531040557.31,99,20.44,74144.8,13.95,5.81,5.73,0,*7E
1531040558.51,100,20.44,74140.5,13.95,5.33,5.33,0,*42
1531040559.69,101,20.44,74140.8,13.93,5.23,5.19,0,*4C
1531040560.91,102,20.44,74140.8,13.91,5.15,4.97,0,*4F
1531040562.15,103,20.44,74144.0,13.91,5.85,5.73,0,*4C
1531040563.37,104,20.44,74140.3,13.91,5.51,5.29,0,*4D
1531040564.62,105,20.44,74142.3,13.91,5.89,5.85,0,*4F
1531040565.84,106,20.44,74140.0,13.91,5.63,5.51,0,*41
1531040567.03,107,20.44,74140.3,13.87,5.51,5.33,0,*42
1531040568.23,108,20.44,74142.0,13.87,4.89,4.63,0,*4D
1531040569.45,109,20.44,74142.5,13.87,5.27,5.01,0,*4C
1531040570.61,110,20.44,74142.5,13.87,5.23,4.89,0,*41
1531040571.83,111,20.44,74140.8,13.85,5.55,5.29,0,*48
1531040573.06,112,20.38,74136.8,13.85,5.89,5.67,0,*40
1531040574.28,113,20.44,74144.8,13.85,6.11,5.81,0,*4B
1531040575.5,114,20.44,74142.3,13.85,5.81,5.45,0,*4E
1531040576.72,115,20.44,74142.0,13.81,5.51,5.15,0,*43
1531040577.96,116,20.44,74140.3,13.81,5.55,5.05,0,*45
1531040579.21,117,20.44,74140.3,13.81,5.51,4.97,0,*4A
1531040580.39,118,20.44,74144.0,13.81,5.29,4.81,0,*4D
1531040581.61,119,20.44,74142.5,13.77,5.29,4.79,0,*42
1531040582.84,120,20.44,74142.5,13.77,5.51,5.11,0,*48
1531040584.06,121,20.44,74140.8,13.77,5.49,4.93,0,*4B
1531040585.28,122,20.44,74142.8,13.77,5.29,4.71,0,*42
1531040586.5,123,20.44,74142.3,13.77,5.15,4.59,0,*46
1531040587.68,124,20.44,74144.8,13.75,5.63,5.11,0,*4F
1531040588.89,125,20.44,74142.0,13.73,5.99,5.49,0,*40
1531040590.09,126,20.44,74142.0,13.75,5.73,5.15,0,*48
1531040591.28,127,20.44,74146.8,13.77,5.37,4.81,0,*47
1531040592.49,128,20.44,74140.8,13.73,4.89,4.37,0,*45
1531040593.65,129,20.44,74142.3,13.71,5.07,4.49,0,*48
1531040594.82,130,20.44,74146.5,13.71,4.85,4.15,0,*42
1531040596.01,131,20.38,74140.5,13.69,5.07,4.49,0,*48
1531040597.24,132,20.44,74144.3,13.69,5.23,4.63,0,*45
1531040598.43,133,20.44,74140.0,13.69,5.29,4.53,0,*4D
1531040599.65,134,20.44,74142.8,13.69,5.29,4.75,0,*4E
1531040600.82,135,20.44,74142.0,13.67,5.11,4.49,0,*45
1531040602.02,136,20.44,74142.0,13.67,4.79,4.07,0,*43
1531040603.27,137,20.44,74140.0,13.65,4.67,3.97,0,*41
1531040604.52,138,20.44,74142.5,13.65,4.97,4.31,0,*4A
1531040605.71,139,20.44,74142.5,13.63,5.27,4.57,0,*47
1531040606.91,140,20.44,74140.3,13.63,5.37,4.75,0,*48
1531040608.14,141,20.44,74140.8,13.65,5.37,4.75,0,*4F
1531040609.33,142,20.44,74140.8,13.63,5.01,4.27,0,*48
1531040610.5,143,20.38,74140.3,13.59,5.07,4.23,0,*42
1531040611.69,144,20.44,74142.3,13.59,4.97,4.11,0,*4C
1531040612.91,145,20.44,74144.0,13.59,4.63,3.79,0,*4F
1531040614.14,146,20.44,74140.3,13.57,5.07,4.31,0,*4A
1531040615.33,147,20.44,74140.5,13.57,5.29,4.45,0,*44
1531040616.55,148,20.44,74142.5,13.57,4.93,4.11,0,*4A
1531040617.76,149,20.44,74144.0,13.55,5.27,4.45,0,*46
1531040618.98,150,20.44,74146.8,13.57,5.27,4.45,0,*4C
1531040620.17,151,20.44,74142.5,13.55,5.41,4.57,0,*4C
1531040621.39,152,20.44,74142.5,13.55,4.93,4.11,0,*43
1531040622.61,153,20.44,74142.0,13.55,5.41,4.71,0,*4A
1531040623.83,154,20.44,74142.0,13.55,5.49,4.59,0,*4F
1531040625.02,155,20.44,74146.0,13.53,5.27,4.45,0,*4D
1531040626.2,156,20.44,74146.0,13.51,5.07,4.27,0,*4A
1531040627.39,157,20.44,74144.8,13.51,5.23,4.49,0,*45
1531040628.6,158,20.44,74140.5,13.51,5.11,4.31,0,*44
1531040629.83,159,20.44,74142.8,13.51,4.71,3.89,0,*46
1531040631.05,160,20.44,74146.0,13.51,5.01,4.23,0,*4D
1531040632.23,161,20.44,74144.5,13.49,4.41,3.67,0,*47
1531040633.43,162,20.44,74146.8,13.47,4.11,3.29,0,*45
1531040634.65,163,20.44,74142.3,13.47,4.93,4.11,0,*42
1531040635.88,164,20.44,74144.8,13.47,4.37,3.45,0,*4D
1531040637.12,165,20.44,74144.8,13.43,4.63,3.75,0,*4A
1531040638.36,166,20.44,74142.8,13.43,4.31,3.33,0,*4C
1531040639.58,167,20.44,74144.0,13.43,4.23,3.37,0,*4A
1531040640.8,168,20.44,74142.5,13.43,4.19,3.37,0,*4C
1531040641.99,169,20.44,74142.0,13.37,4.33,3.53,0,*44
1531040643.15,170,20.44,74146.8,13.37,4.45,3.63,0,*4E
1531040644.35,171,20.44,74142.5,13.37,4.27,3.41,0,*4B
1531040645.54,172,20.44,74144.3,13.35,4.15,3.29,0,*45
1531040646.71,173,20.44,74142.0,13.33,3.85,2.99,0,*46
1531040647.91,174,20.44,74140.8,13.33,3.93,3.03,0,*44
1531040649.15,175,20.44,74144.0,13.31,3.49,2.69,0,*4D
1531040650.37,176,20.44,74146.5,13.27,3.79,2.91,0,*4D
1531040651.54,177,20.44,74144.8,13.29,3.55,2.65,0,*47
1531040652.78,178,20.44,74146.5,13.27,3.45,2.69,0,*4B
1531040653.95,179,20.44,74146.3,13.25,3.81,2.91,0,*47
1531040655.14,180,20.44,74144.0,13.23,3.81,3.11,0,*4E
1531040656.36,181,20.44,74146.8,13.21,4.37,3.67,0,*46
1531040657.56,182,20.44,74146.8,13.21,4.89,4.19,0,*4E
1531040658.8,183,20.44,74144.0,13.21,4.67,3.97,0,*4E
1531040660.0,184,20.44,74146.3,13.23,4.63,3.93,0,*4B
1531040661.16,185,20.44,74142.5,13.23,4.33,3.59,0,*49
1531040662.41,186,20.44,74144.0,13.21,4.31,3.67,0,*47
1531040663.64,187,20.44,74146.5,13.21,4.67,3.93,0,*4E
1531040664.82,188,20.44,74146.8,13.19,4.49,3.71,0,*4A
1531040666.02,189,20.44,74144.0,13.17,4.37,3.55,0,*4A
1531040667.23,190,20.44,74146.5,13.19,4.79,3.97,0,*48
1531040668.42,191,20.44,74144.8,13.19,4.85,4.05,0,*46
1531040669.62,192,20.44,74146.0,13.19,4.37,3.45,0,*4F
1531040670.83,193,20.44,74144.5,13.17,4.49,3.53,0,*4E
1531040672.05,194,20.44,74146.3,13.19,4.59,3.49,0,*4D
1531040673.29,195,20.44,74144.3,13.17,4.63,3.75,0,*44
1531040674.49,196,20.44,74142.3,13.17,5.19,4.15,0,*4A
1531040675.68,197,20.44,74144.0,13.17,5.19,4.11,0,*4F
1531040676.89,198,20.44,74144.8,13.17,5.15,4.05,0,*49
1531040678.09,199,20.44,74144.0,13.19,5.19,3.97,0,*46
1531040679.28,200,20.44,74142.8,13.19,4.97,3.89,0,*4D
1531040680.5,201,20.44,74144.3,13.17,4.97,3.85,0,*4E
1531040681.72,202,20.44,74144.0,13.17,4.71,3.63,0,*4D
1531040682.91,203,20.44,74144.3,13.19,4.85,3.67,0,*4D
1531040684.15,204,20.44,74144.5,13.17,4.71,3.53,0,*48
1531040685.36,205,20.44,74144.8,13.17,4.81,3.67,0,*41
1531040686.56,206,20.44,74144.0,13.17,5.07,3.89,0,*4D
1531040687.77,207,20.44,74142.5,13.19,5.01,3.79,0,*4B
1531040688.97,208,20.44,74144.0,13.17,5.15,3.89,0,*40
1531040690.16,209,20.44,74144.3,13.17,5.45,4.37,0,*46
1531040691.34,210,20.44,74146.3,13.19,5.71,4.59,0,*4F
1531040692.54,211,20.44,74142.0,13.17,5.19,3.89,0,*44
1531040693.78,212,20.44,74146.8,13.17,4.97,3.53,0,*47
1531040694.99,213,20.44,74146.5,13.17,5.07,3.53,0,*4E
1531040696.24,214,20.44,74146.0,13.17,4.97,3.33,0,*47
1531040697.49,215,20.44,74144.3,13.17,5.05,3.41,0,*49
1531040698.74,216,20.44,74146.3,13.17,5.05,3.49,0,*42
1531040699.93,217,20.44,74148.3,13.19,5.07,3.33,0,*42
1531040701.14,218,20.44,74144.3,13.17,4.81,3.07,0,*4B
1531040702.36,219,20.44,74142.5,13.19,4.67,2.89,0,*4B
1531040703.6,220,20.44,74146.3,13.17,5.27,3.41,0,*4F
1531040704.79,221,20.44,74144.8,13.19,5.41,3.45,0,*44
1531040706.03,222,20.44,74148.8,13.17,5.27,3.03,0,*4B
1531040707.24,223,20.44,74146.8,13.19,4.63,2.55,0,*47
1531040708.46,224,20.44,74146.5,13.19,4.31,2.05,0,*42
1531040709.71,225,20.44,74144.0,13.17,4.05,1.85,0,*41
1531040710.9,226,20.44,74144.3,13.17,4.33,2.35,0,*4F
1531040712.1,227,20.44,74146.5,13.13,4.23,2.27,0,*48
1531040713.32,228,20.44,74146.8,13.13,4.53,2.47,0,*46
1531040714.56,229,20.44,74144.3,13.13,4.67,2.55,0,*43
1531040715.79,230,20.44,74144.8,13.13,4.81,2.81,0,*4A
1531040717.03,231,20.44,74144.3,13.13,4.59,2.47,0,*44
1531040718.28,232,20.44,74146.8,13.13,4.59,2.43,0,*43
1531040719.48,233,20.44,74146.8,13.13,4.57,2.35,0,*4D
1531040720.7,234,20.44,74146.8,13.13,4.53,2.17,0,*4E
1531040721.95,235,20.44,74150.5,13.13,4.01,1.37,0,*49
1531040723.14,236,20.44,74148.3,13.13,3.63,0.97,0,*72
1531040724.35,237,20.44,74148.5,13.11,3.41,0.79,0,*71
1531040725.55,238,20.44,74144.5,13.11,3.25,0.59,0,*7E
1531040726.71,239,20.44,74148.3,13.11,3.63,1.01,0,*41
1531040727.9,240,20.44,74146.5,13.11,3.71,1.01,0,*4C
1531040729.13,241,20.44,74150.3,13.11,3.75,1.09,0,*41
1531040730.32,242,20.44,74146.8,13.09,3.59,0.97,0,*73
1531040731.51,243,20.44,74144.5,13.09,3.59,0.97,0,*72
1531040732.73,244,20.44,74146.0,13.09,3.67,0.97,0,*78
1531040733.93,245,20.44,74148.0,13.07,4.15,1.67,0,*4B
1531040735.15,246,20.44,74146.8,13.09,4.57,2.05,0,*47
1531040736.39,247,20.44,74146.8,13.09,4.67,2.25,0,*47
1531040737.62,248,20.44,74146.5,13.09,4.53,2.05,0,*4D
1531040738.84,249,20.44,74146.0,13.13,4.31,1.83,0,*4E
1531040740.07,250,20.44,74148.5,13.13,4.33,1.85,0,*42
1531040741.29,251,20.44,74146.0,13.13,4.53,1.97,0,*46
1531040742.5,252,20.44,74144.8,13.17,4.05,1.41,0,*49
1531040743.69,253,20.44,74146.0,13.17,3.93,1.41,0,*40
1531040744.93,254,20.44,74146.0,13.17,3.79,1.17,0,*40
1531040746.13,255,20.44,74144.5,13.17,4.33,1.79,0,*40
1531040747.31,256,20.44,74146.0,13.19,4.49,1.93,0,*44
1531040748.49,257,20.44,74144.0,13.19,4.49,2.25,0,*4B
1531040749.71,258,20.44,74146.5,13.19,4.31,2.17,0,*4A
1531040750.93,259,20.44,74144.5,13.19,4.05,1.93,0,*43
1531040752.13,260,20.44,74146.0,13.21,4.53,2.61,0,*4F
1531040753.34,261,20.44,74146.0,13.21,4.53,2.61,0,*4E
1531040754.56,262,20.44,74146.8,13.21,4.41,2.51,0,*4D
1531040755.73,263,20.44,74148.3,13.23,4.19,2.27,0,*42
1531040756.92,264,20.44,74144.8,13.23,4.11,2.05,0,*4D
1531040758.15,265,20.44,74146.8,13.21,4.27,2.13,0,*4C
1531040759.38,266,20.44,74146.0,13.23,4.31,2.17,0,*4E
1531040760.57,267,20.44,74146.8,13.23,4.23,2.17,0,*4C
1531040761.76,268,20.44,74144.8,13.23,4.57,2.55,0,*46
1531040762.96,269,20.44,74146.3,13.23,4.45,2.39,0,*4E
1531040764.18,270,20.44,74146.3,13.25,4.31,1.97,0,*44
1531040765.35,271,20.44,74148.5,13.25,3.85,1.75,0,*41
1531040766.56,272,20.44,74144.3,13.27,3.55,1.17,0,*49
1531040767.8,273,20.44,74146.8,13.27,3.07,0.51,0,*7C
1531040769.02,274,20.44,74144.3,13.23,3.03,0.51,0,*7B
1531040770.23,275,20.44,74144.8,13.23,3.19,0.75,0,*77
1531040771.45,276,20.44,74146.0,13.23,3.53,1.25,0,*4E
1531040772.67,277,20.44,74146.5,13.21,4.27,2.01,0,*4C
1531040773.89,278,20.44,74144.3,13.23,4.31,2.17,0,*41
1531040775.08,279,20.44,74144.0,13.23,4.41,2.21,0,*42
1531040776.28,280,20.44,74146.8,13.25,4.53,2.43,0,*45
1531040777.45,281,20.44,74144.8,13.25,4.57,2.65,0,*44
1531040778.68,282,20.44,74148.0,13.25,4.79,2.77,0,*48
1531040779.9,283,20.44,74146.5,13.27,4.67,2.61,0,*43
1531040781.11,284,20.44,74144.3,13.27,4.85,3.07,0,*49
1531040782.28,285,20.44,74144.3,13.29,4.85,2.99,0,*40
1531040783.45,286,20.44,74148.3,13.29,5.19,3.55,0,*46
1531040784.67,287,20.44,74146.5,13.31,5.15,3.49,0,*4F
1531040785.89,288,20.44,74146.8,13.31,5.15,3.71,0,*4B
1531040787.11,289,20.44,74146.5,13.31,5.45,4.05,0,*4B
1531040788.31,290,20.44,74146.5,13.33,5.27,3.97,0,*49
1531040789.51,291,20.44,74144.3,13.33,5.05,3.59,0,*4A
1531040790.7,292,20.44,74144.3,13.33,5.11,3.75,0,*42
1531040791.88,293,20.44,74144.0,13.33,5.27,3.85,0,*49
1531040793.1,294,20.44,74150.3,13.35,4.97,3.63,0,*4A
1531040794.28,295,20.44,74144.3,13.37,4.45,3.19,0,*4B
1531040795.53,296,20.44,74146.8,13.35,4.93,3.75,0,*4B
1531040796.77,297,20.44,74144.3,13.35,4.93,3.79,0,*46
1531040797.93,298,20.44,74146.0,13.33,5.33,4.19,0,*45
1531040799.12,299,20.44,74146.5,13.35,5.49,4.45,0,*46
1531040800.27,300,20.44,74144.5,13.37,5.29,4.27,0,*47
1531040801.47,301,20.44,74146.3,13.37,4.97,4.15,0,*43
1531040802.66,302,20.44,74144.3,13.37,5.05,4.23,0,*4F
1531040803.83,303,20.44,74146.0,13.37,5.63,4.81,0,*46
1531040805.04,304,20.44,74144.3,13.37,5.77,4.97,0,*43
1531040806.27,305,20.44,74146.0,13.41,5.81,4.97,0,*4A
1531040807.47,306,20.44,74144.5,13.41,5.93,5.07,0,*42
1531040808.65,307,20.44,74144.8,13.41,5.67,4.53,0,*48
1531040809.84,308,20.44,74148.8,13.43,5.33,4.15,0,*46
1531040811.03,309,20.44,74144.3,13.45,5.05,3.59,0,*4B
1531040812.22,310,20.44,74146.8,13.45,5.11,3.53,0,*4C
1531040813.42,311,20.44,74146.8,13.45,4.89,3.33,0,*4B
1531040814.61,312,20.44,74144.3,13.45,4.67,2.99,0,*49
1531040815.85,313,20.44,74146.0,13.43,4.67,2.81,0,*47
1531040817.04,314,20.44,74144.0,13.45,4.15,2.21,0,*49
1531040818.27,315,20.44,74146.0,13.43,4.07,2.17,0,*48
1531040819.45,316,20.44,74146.3,13.43,3.63,1.79,0,*45
1531040820.7,317,20.44,74146.8,13.43,4.31,2.43,0,*4E
1531040821.9,318,20.44,74146.8,13.43,4.41,2.61,0,*46
1531040823.07,319,20.44,74146.5,13.45,4.41,2.65,0,*45
1531040824.29,320,20.44,74146.0,13.43,4.15,2.43,0,*4C
1531040825.46,321,20.44,74146.3,13.45,4.23,2.65,0,*4A
1531040826.68,322,20.44,74146.5,13.45,4.31,2.55,0,*49
1531040827.87,323,20.44,74144.8,13.45,4.19,2.43,0,*45
1531040829.09,324,20.44,74146.8,13.45,4.31,2.43,0,*48
1531040830.3,325,20.44,74144.8,13.47,4.37,2.65,0,*49
1531040831.49,326,20.44,74144.5,13.47,3.85,1.83,0,*4F
1531040832.68,327,20.44,74144.8,13.49,3.89,1.89,0,*46
1531040833.87,328,20.44,74146.5,13.49,3.29,1.21,0,*41
1531040835.11,329,20.44,74144.8,13.47,3.19,1.17,0,*48
1531040836.33,330,20.44,74148.0,13.47,3.03,0.97,0,*72
1531040837.57,331,20.44,74144.0,13.47,3.97,2.09,0,*4B
1531040838.79,332,20.44,74146.8,13.47,3.89,2.01,0,*4F
1531040840.01,333,20.44,74146.8,13.49,4.01,2.17,0,*40
1531040841.23,334,20.44,74144.3,13.49,3.79,2.01,0,*48
1531040842.44,335,20.44,74146.0,13.49,3.71,1.89,0,*42
1531040843.63,336,20.44,74146.5,13.49,3.81,2.17,0,*4A
1531040844.85,337,20.44,74148.3,13.49,3.79,2.05,0,*4F
1531040846.05,338,20.44,74144.0,13.49,3.93,2.25,0,*46
1531040847.26,339,20.44,74144.3,13.49,4.01,2.25,0,*4B
1531040848.48,340,20.44,74146.0,13.51,3.67,1.79,0,*41
1531040849.72,341,20.44,74146.0,13.51,3.79,1.89,0,*40
1531040850.91,342,20.44,74148.0,13.53,3.81,2.05,0,*41
1531040852.13,343,20.44,74146.8,13.51,3.89,2.05,0,*4A
1531040853.35,344,20.44,74146.5,13.53,3.23,1.43,0,*4E
1531040854.57,345,20.44,74150.5,13.53,3.15,1.43,0,*4A
1531040855.8,346,20.44,74146.5,13.51,3.45,1.63,0,*4C
1531040856.99,347,20.44,74148.3,13.53,3.25,1.47,0,*4F
1531040858.21,348,20.44,74146.5,13.53,3.37,1.47,0,*43
1531040859.43,349,20.44,74146.8,13.53,3.15,1.43,0,*46
1531040860.65,350,20.44,74144.3,13.55,3.29,1.51,0,*44
1531040861.84,351,20.44,74148.3,13.55,3.55,1.83,0,*41
1531040863.06,352,20.44,74150.8,13.55,3.41,1.83,0,*47
1531040864.27,353,20.44,74146.5,13.55,3.29,1.63,0,*46
1531040865.5,354,20.44,74146.8,13.57,3.25,1.63,0,*4F
1531040866.72,355,20.44,74144.3,13.57,3.29,1.63,0,*42
1531040867.97,356,20.44,74146.3,13.57,3.15,1.51,0,*4F
1531040869.17,357,20.44,74148.5,13.57,3.29,1.75,0,*47
1531040870.37,358,20.44,74144.8,13.57,3.25,1.75,0,*44
1531040871.6,359,20.44,74144.3,13.59,3.45,2.13,0,*4E
1531040872.76,360,20.44,74148.0,13.59,3.55,2.27,0,*42
1531040873.99,361,20.44,74146.5,13.63,3.71,2.43,0,*4E
1531040875.16,362,20.44,74150.0,13.59,4.23,2.95,0,*4F
1531040876.38,363,20.44,74144.3,13.63,4.31,3.03,0,*4A
1531040877.58,364,20.44,74146.5,13.65,4.07,2.99,0,*4C
1531040878.78,365,20.44,74146.8,13.67,4.19,3.07,0,*46
1531040879.99,366,20.44,74146.8,13.67,4.11,3.07,0,*4D
1531040881.16,367,20.44,74146.8,13.67,3.89,2.95,0,*40
1531040882.39,368,20.44,74146.5,13.69,3.89,2.85,0,*40
1531040883.58,369,20.44,74146.3,13.71,4.01,2.95,0,*4E
1531040884.75,370,20.44,74146.5,13.71,3.93,2.99,0,*46
1531040885.95,371,20.44,74146.3,13.73,3.85,2.99,0,*42
1531040887.15,372,20.44,74144.8,13.75,3.59,2.77,0,*46
1531040888.35,373,20.44,74146.8,13.75,3.29,2.55,0,*40
1531040889.57,374,20.44,74144.3,13.77,3.07,2.35,0,*4F
1531040890.82,375,20.44,74144.3,13.77,3.41,2.59,0,*46
1531040891.99,376,20.44,74150.0,13.79,3.63,2.95,0,*4B
1531040893.22,377,20.44,74144.5,13.79,3.75,3.11,0,*40
1531040894.45,378,20.44,74146.5,13.79,3.11,2.59,0,*40
1531040895.67,379,20.44,74144.0,13.79,3.03,2.51,0,*4A
1531040896.9,380,20.44,74148.8,13.81,3.19,2.61,0,*43
1531040898.13,381,20.44,74148.3,13.81,2.69,1.89,0,*41
1531040899.38,382,20.44,74144.8,13.81,3.03,2.25,0,*4A
1531040900.63,383,20.44,74150.0,13.81,3.03,2.39,0,*46
1531040901.88,384,20.44,74146.0,13.85,3.23,2.43,0,*4A
1531040903.13,385,20.44,74146.8,13.81,3.19,2.39,0,*4B
1531040904.38,386,20.44,74146.8,13.85,3.23,2.51,0,*4B
1531040905.61,387,20.44,74144.0,13.85,3.37,2.65,0,*48
1531040906.83,388,20.44,74148.0,13.85,3.37,2.65,0,*47
1531040908.05,389,20.44,74146.8,13.87,3.41,2.69,0,*49
1531040909.27,390,20.44,74146.3,13.87,3.71,2.81,0,*44
1531040910.5,391,20.44,74142.8,13.89,4.05,3.15,0,*43
1531040911.7,392,20.44,74146.3,13.89,3.55,2.73,0,*43
1531040912.92,393,20.44,74148.8,13.89,3.45,2.73,0,*43
1531040914.15,394,20.44,74140.3,13.89,3.75,3.19,0,*4A
1531040915.38,395,20.44,74144.5,13.91,3.89,3.33,0,*49
1531040916.6,396,20.44,74146.3,13.93,3.67,3.23,0,*49
1531040917.82,397,20.44,74144.5,13.93,3.67,3.23,0,*48
1531040919.05,398,20.44,74146.0,13.95,3.25,3.15,0,*42
1531040920.3,399,20.44,74148.3,13.95,3.41,3.37,0,*41
1531040921.55,400,20.44,74144.3,13.95,3.41,3.15,0,*46
1531040922.78,401,20.44,74144.0,13.95,3.63,3.41,0,*46
1531040924.03,402,20.44,74144.8,13.95,3.75,3.41,0,*42
1531040925.25,403,20.44,74146.5,13.95,3.59,3.37,0,*4C
1531040926.45,404,20.44,74146.0,13.97,3.59,3.37,0,*49
1531040927.67,405,20.44,74144.8,13.95,3.37,3.25,0,*41
1531040928.84,406,20.44,74144.3,13.97,3.29,3.25,0,*4F
1531040930.04,407,20.44,74144.8,13.97,3.29,3.11,0,*49
1531040931.26,408,20.44,74146.3,13.99,3.29,2.85,0,*44
1531040932.45,409,20.44,74142.8,13.97,3.41,2.99,0,*48
1531040933.67,410,20.44,74144.8,13.97,3.53,3.03,0,*41
1531040934.89,411,20.44,74144.0,13.99,3.53,3.29,0,*46
1531040936.12,412,20.44,74146.5,13.99,3.41,3.25,0,*4A
1531040937.31,413,20.44,74146.5,14.01,3.07,2.91,0,*41
1531040938.51,414,20.44,74148.0,13.99,2.91,2.91,0,*4E